This demonstration page uses our WeatherBlox Daily Observations layout. Learn more.

Left ArrowRight Arrow

Hourly Observations for April 14, 2015

Temp ( °F °C ) Dew Point ( °F °C ) Humidity (%) Winds ( mph kmh ) Pressure ( in mb ) Visibility ( mi km ) Precip ( " mm )
12:15 am 00:15 Clear 48 9.1 27 -2.7 44 44 S 9 15 30.21 1023 10 16 N/A
12:35 am 00:35 Clear 50 10 26 -3.6 39 39 S 12 19 30.21 1023 10 16 N/A
12:55 am 00:55 Clear 50 9.8 26 -3.6 39 39 S 9 15 30.21 1023 10 16 N/A
1:15 am 01:15 Clear 49 9.2 26 -3.5 41 41 S 12 19 30.21 1023 10 16 N/A
1:35 am 01:35 Clear 49 9.4 26 -3.6 40 40 S 10 17 30.21 1023 10 16 N/A
1:55 am 01:55 Clear 49 9.2 26 -3.6 41 41 S 12 19 30.21 1023 10 16 N/A
2:15 am 02:15 Clear 50 9.9 26 -3.6 39 39 SSW 13 20 30.21 1023 10 16 N/A
2:35 am 02:35 Clear 50 10.2 26 -3.5 38 38 SSW 12 19 30.21 1023 10 16 N/A
2:55 am 02:55 Clear 50 10 26 -3.3 39 39 SSW 13 20 30.21 1023 10 16 N/A
3:15 am 03:15 Clear 50 9.8 26 -3.4 40 40 SSW 15 24 30.21 1023 10 16 N/A
3:35 am 03:35 Clear 49 9.6 26 -3.1 41 41 SSW 15 24 30.21 1023 10 16 N/A
3:55 am 03:55 Clear 48 8.9 27 -2.9 44 44 S 13 20 30.21 1023 10 16 N/A
4:15 am 04:15 Clear 47 8.6 27 -2.7 45 45 SSW 12 19 30.18 1022 10 16 N/A
4:35 am 04:35 Clear 47 8.5 28 -2.5 46 46 SSW 13 20 30.18 1022 10 16 N/A
4:55 am 04:55 Clear 47 8.3 28 -2.5 47 47 SSW 10 17 30.21 1023 10 16 N/A
5:15 am 05:15 Clear 45 7.3 28 -2.4 51 51 SSW 9 15 30.21 1023 10 16 N/A
5:35 am 05:35 Clear 45 7 28 -2.3 52 52 S 8 13 30.21 1023 10 16 N/A
5:55 am 05:55 Clear 44 6.5 28 -2.3 54 54 S 8 13 30.21 1023 10 16 N/A
6:15 am 06:15 Clear 43 6.1 28 -2 56 56 S 7 11 30.21 1023 10 16 N/A
6:35 am 06:35 Clear 44 6.7 28 -2 54 54 SSW 10 17 30.21 1023 10 16 N/A
6:55 am 06:55 Clear 43 6.1 28 -2 56 56 SSW 8 13 30.21 1023 10 16 N/A
7:15 am 07:15 Sunny 43 6.2 28 -2 56 56 SSW 9 15 30.21 1023 10 16 N/A
7:35 am 07:35 Sunny 44 6.5 28 -2 55 55 S 7 11 30.21 1023 10 16 N/A
7:55 am 07:55 Sunny 45 7.1 29 -1.8 54 54 S 8 13 30.21 1023 10 16 N/A
8:15 am 08:15 Sunny 47 8.5 29 -1.6 49 49 S 12 19 30.18 1022 10 16 N/A
8:35 am 08:35 Sunny 49 9.3 29 -1.5 47 47 S 10 17 30.18 1022 10 16 N/A
8:55 am 08:55 Sunny 52 10.9 29 -1.4 43 43 SSW 12 19 30.18 1022 10 16 N/A
9:15 am 09:15 Sunny 53 11.8 29 -1.5 40 40 SSW 16 26 30.15 1021 10 16 N/A
9:35 am 09:35 Sunny 56 13.2 29 -1.9 35 35 SSW 20 31 30.15 1021 10 16 N/A
9:55 am 09:55 Sunny 57 14 29 -1.9 34 34 SSW 18 30 30.15 1021 10 16 N/A
10:15 am 10:15 Sunny 58 14.5 30 -1.3 34 34 S 16 26 30.12 1020 10 16 N/A
10:35 am 10:35 Sunny 60 15.7 29 -1.8 30 30 S 21 33 30.12 1020 10 16 N/A
10:55 am 10:55 Sunny 62 16.5 27 -2.8 27 27 S 25 41 30.12 1020 10 16 N/A
11:15 am 11:15 Sunny 63 17 28 -2 27 27 S 25 41 30.12 1020 10 16 N/A
11:35 am 11:35 Sunny 63 17 29 -1.9 28 28 S 22 35 30.12 1020 10 16 N/A
11:55 am 11:55 Sunny 64 17.5 28 -2.1 26 26 S 23 37 30.09 1019 10 16 N/A
12:15 pm 12:15 Sunny 64 17.9 28 -2.4 25 25 S 24 39 30.09 1019 10 16 N/A
12:35 pm 12:35 Sunny 65 18.1 29 -1.6 26 26 S 22 35 30.06 1018 10 16 N/A
12:55 pm 12:55 Sunny 65 18.3 28 -2 25 25 S 22 35 30.06 1018 10 16 N/A
1:15 pm 13:15 Sunny 66 19.1 28 -2.5 23 23 S 24 39 30.03 1017 10 16 N/A
1:35 pm 13:35 Sunny 66 19.1 25 -3.9 21 21 S 22 35 30.03 1017 10 16 N/A
1:55 pm 13:55 Sunny 67 19.6 25 -3.9 20 20 SSE 21 33 30.03 1017 10 16 N/A
2:15 pm 14:15 Sunny 67 19.6 24 -4.3 20 20 SSE 24 39 30.03 1017 10 16 N/A
2:35 pm 14:35 Sunny 68 20.1 22 -5.3 18 18 S 23 37 30.00 1016 10 16 N/A
2:55 pm 14:55 Sunny 68 20.2 23 -4.9 18 18 SSE 24 39 30.00 1016 10 16 N/A
3:15 pm 15:15 Sunny 68 20 22 -5.8 17 17 SSE 22 35 29.97 1015 10 16 N/A
3:35 pm 15:35 Sunny 70 21 22 -5.8 16 16 S 23 37 29.94 1014 10 16 N/A
3:55 pm 15:55 Sunny 70 21 22 -5.3 17 17 S 23 37 29.94 1014 10 16 N/A
4:15 pm 16:15 Sunny 70 20.9 23 -5 17 17 S 24 39 29.94 1014 10 16 N/A
4:35 pm 16:35 Sunny 70 21.1 25 -4.1 18 18 SSE 22 35 29.94 1014 10 16 N/A
4:55 pm 16:55 Sunny 70 21 24 -4.3 18 18 SSE 24 39 29.94 1014 10 16 N/A
5:15 pm 17:15 Sunny 70 21.3 24 -4.5 17 17 S 21 33 29.94 1014 10 16 N/A
5:35 pm 17:35 Sunny 69 20.6 23 -5 17 17 S 21 33 29.91 1013 10 16 N/A
5:55 pm 17:55 Sunny 69 20.3 22 -5.4 17 17 S 24 39 29.91 1013 10 16 N/A
6:15 pm 18:15 Sunny 68 19.8 22 -5.7 17 17 SSE 21 33 29.91 1013 10 16 N/A
6:35 pm 18:35 Sunny 67 19.5 22 -5.6 18 18 SSE 23 37 29.91 1013 10 16 N/A
6:55 pm 18:55 Sunny 66 19 21 -6 18 18 SSE 18 30 29.94 1014 10 16 N/A
7:15 pm 19:15 Sunny 65 18.5 23 -5.2 20 20 SSE 15 24 29.94 1014 10 16 N/A
7:35 pm 19:35 Sunny 64 18 22 -5.5 20 20 SSE 20 31 29.91 1013 10 16 N/A
7:55 pm 19:55 Sunny 63 17.1 23 -5 22 22 SSE 18 30 29.91 1013 10 16 N/A
8:15 pm 20:15 Sunny 61 16 23 -4.9 24 24 SSE 18 30 29.94 1014 10 16 N/A
8:35 pm 20:35 Clear 60 15.5 23 -4.9 24 24 SSE 17 28 29.94 1014 10 16 N/A
8:55 pm 20:55 Clear 59 14.8 24 -4.7 26 26 SE 15 24 29.97 1015 10 16 N/A
9:15 pm 21:15 Clear 57 13.8 24 -4.5 28 28 SSE 14 22 29.97 1015 10 16 N/A
9:35 pm 21:35 Clear 56 13.2 24 -4.5 29 29 SE 9 15 30.00 1016 10 16 N/A
9:55 pm 21:55 Clear 54 12.2 25 -4 32 32 SE 10 17 30.00 1016 10 16 N/A
10:15 pm 22:15 Clear 53 11.7 25 -4 33 33 SE 13 20 30.00 1016 10 16 N/A
10:35 pm 22:35 Clear 53 11.8 25 -3.8 34 34 SE 13 20 30.00 1016 10 16 N/A
10:55 pm 22:55 Clear 52 11.2 26 -3.6 36 36 SE 12 19 30.00 1016 10 16 N/A
11:15 pm 23:15 Clear 52 11.2 26 -3.5 36 36 SSE 14 22 30.00 1016 10 16 N/A
11:35 pm 23:35 Clear 51 10.5 27 -3 39 39 SSE 12 19 30.00 1016 10 16 N/A
11:55 pm 23:55 Clear 51 10.5 27 -3 39 39 SE 12 19 30.00 1016 10 16 N/A

Powered by AerisWeather